User: anonymous   Login
Location: Auckland
(36.8670°S, 174.7670°E)
Time: 07:19:04
(UTC+13:00)
Language:

Cosmos 2333 Rocket - Orbit

View from above orbital plane
View from above orbital plane
View from above satellite
View from above satellite

Ground track
Ground track

The orbit data is extracted from the following two-line orbital elements,

1 24298U 96051B   19081.19723883  .00000005  00000-0  28943-4 0  9991
2 24298  70.8249 146.3600 0017924 297.2900  62.6394 14.12391928162615
Epoch (UTC): 22 March 2019 04:44:01
Eccentricity: 0.0017924
inclination: 70.8249°
perigee height: 838 km
apogee height: 864 km
right ascension of ascending node: 146.3600°
argument of perigee: 297.2900°
revolutions per day: 14.12391928
mean anomaly at epoch: 62.6394°
orbit number at epoch: 16261

The dashed part of the orbit path shows where the satellite is in the earth's shadow,  

DLR